Vorticity
nan nan nan nan nan nan nan nan nan nan nan nan nan nan nan nan nan nan nan nan nan nan nan nan nan nan nan nan nan nan nan nan nan nan nan nan nan nan nan nan nan nan nan
nan 7 7 5 5 4 4 6 5 6 5 5 5 5 5 5 5 4 5 7 6 5 5 4 5 6 8 6 4 4 5 5 4 5 5 5 5 5 5 6 6 5 nan
nan 7 7 6 6 5 4 5 5 5 5 5 5 6 5 5 5 5 5 5 6 5 5 5 5 6 6 5 5 5 5 6 5 4 7 7 6 5 5 6 6 6 nan
nan 6 6 7 7 5 5 5 6 5 5 6 5 5 5 5 6 5 5 5 5 6 6 6 6 6 6 5 5 5 5 6 6 8 8 6 4 4 6 6 6 5 nan
nan 6 7 8 7 5 4 5 6 5 6 6 5 5 5 5 5 5 5 5 6 5 5 5 6 6 6 5 5 6 5 4 6 9 7 7 7 6 6 6 5 5 nan
nan 7 7 5 5 6 6 5 6 5 6 5 5 4 5 5 5 5 5 5 5 5 5 5 6 6 6 7 6 5 5 6 6 6 6 7 8 7 6 7 7 6 nan
nan 6 7 5 6 6 5 5 6 8 7 5 4 5 5 5 5 5 5 5 5 5 4 5 6 6 6 6 5 5 5 5 7 6 6 6 5 6 6 7 7 6 nan
nan 5 6 6 7 7 6 7 6 6 6 5 5 5 5 5 5 5 5 5 4 4 5 5 6 6 6 7 8 6 5 6 6 5 5 5 6 6 5 5 5 6 nan
nan 6 6 7 7 7 5 7 6 6 6 7 6 5 5 6 5 5 4 5 4 4 6 7 8 7 6 7 11 9 5 6 7 5 6 6 4 5 5 5 5 5 nan
nan 7 6 7 7 8 7 6 5 6 6 8 8 6 5 3 4 4 5 5 4 5 6 6 8 7 6 7 9 8 5 5 6 6 6 6 5 5 4 5 5 5 nan
nan 6 6 6 6 6 6 6 6 6 5 6 6 4 4 5 5 4 5 5 5 5 5 6 6 7 5 4 5 6 6 6 5 6 4 5 7 5 6 6 6 6 nan
nan 5 5 5 5 5 5 6 5 5 5 5 6 5 5 6 6 6 4 3 4 4 3 4 6 7 7 5 4 5 7 7 6 6 5 5 6 5 5 6 6 6 nan
nan 5 7 6 6 6 5 5 6 6 6 7 7 6 6 6 6 6 6 5 4 4 6 4 4 5 7 8 7 7 7 7 7 5 4 5 6 6 6 5 5 6 nan
nan 6 6 6 6 5 5 7 7 7 7 7 7 6 5 6 6 6 6 6 7 7 7 6 6 6 5 7 8 7 7 7 7 6 3 4 6 6 6 5 5 6 nan
nan 7 7 6 6 6 6 6 7 7 7 7 7 6 6 7 6 6 6 7 8 7 7 7 6 6 6 6 6 6 6 6 7 7 5 5 6 7 5 5 6 7 nan
nan 7 7 7 7 6 6 6 6 7 8 7 7 7 7 6 7 6 7 8 7 7 8 6 7 7 7 7 7 6 7 7 7 7 7 6 6 7 6 6 6 7 nan
nan 8 8 7 7 6 6 6 7 7 7 7 8 8 7 6 7 7 7 7 7 7 7 6 7 7 7 7 7 6 6 7 7 7 7 8 7 4 5 7 8 8 nan
nan 8 7 8 8 6 6 6 7 8 7 7 8 8 8 7 7 7 8 8 8 6 6 7 7 8 7 7 7 8 7 7 7 7 7 7 7 6 4 6 8 8 nan
nan 8 8 8 8 7 7 7 8 8 7 8 8 8 8 8 8 8 8 8 8 7 7 7 7 8 8 8 8 8 8 8 8 8 8 8 8 7 6 5 5 7 nan
nan 8 8 9 8 7 6 7 8 8 8 9 9 9 8 8 8 8 8 8 7 6 7 7 7 7 8 8 8 9 9 9 9 9 9 9 8 7 6 6 6 5 nan
nan 10 9 8 7 4 5 7 8 8 8 9 10 10 9 8 7 6 7 8 7 7 7 7 7 8 8 8 9 11 11 10 9 10 9 9 8 8 7 6 6 6 nan
nan 11 10 9 8 5 6 7 10 10 9 9 10 9 8 8 8 8 7 8 7 8 8 8 7 7 8 8 8 7 9 10 10 11 9 9 8 8 8 7 6 7 nan
nan 16 12 12 10 9 7 5 7 8 9 9 9 9 10 9 8 8 8 8 8 8 8 8 9 6 7 8 8 5 8 7 9 11 10 9 9 7 7 8 8 8 nan
nan 18 17 15 11 11 8 6 7 8 7 7 9 9 10 10 9 9 9 9 8 8 8 8 8 8 8 6 9 9 7 7 7 7 9 9 10 9 8 8 8 9 nan
nan 14 14 14 14 13 12 9 9 9 9 9 8 8 9 10 10 9 9 9 9 8 8 9 9 8 5 8 7 8 8 8 9 7 5 8 9 10 9 8 8 9 nan
nan nan nan nan nan nan nan nan nan nan nan nan nan nan nan nan nan nan nan nan nan nan nan nan nan nan nan nan nan nan nan nan nan nan nan nan nan nan nan nan nan nan nan
CAPE
875 1567 1901 1811 1724 1824 1699 1550 1358 1694 1319 983 972 1077 1171 1126 1068 1399 1468 1765 1401 1017 975 901 1080 1307 1518 1369 1286 1092 971 965 946 987 1280 1469 1622 1068 1141 1129 1270 929 755
988 1576 1778 1960 1705 1779 1705 1528 1460 1717 1677 1370 753 850 902 927 834 1022 1044 1195 633 692 896 930 938 1204 1466 1484 1343 1114 945 914 872 862 738 878 1259 1252 852 1211 1358 749 778
1119 1511 1509 1960 1798 1830 1715 1625 1524 1940 1843 1467 927 760 823 832 837 756 725 768 769 602 713 738 720 986 1286 1358 1183 968 872 821 716 614 673 801 951 1205 1011 1411 1248 1113 878
1265 1430 1435 1967 1758 1788 1660 1466 1494 1833 1630 1384 953 886 843 789 751 758 754 682 533 443 455 538 560 700 1113 896 669 582 810 761 581 613 705 851 795 1058 990 907 806 742 638
1426 1490 1455 1863 1835 1758 1593 1503 1549 1600 1458 1397 953 767 745 705 638 550 488 430 465 561 570 515 508 446 489 624 539 386 404 315 111 582 863 968 1013 1012 984 826 699 675 660
1287 1385 1801 1986 1817 1988 1968 1407 1464 1418 1459 1144 901 724 631 526 390 389 489 689 912 938 558 540 539 335 350 378 345 229 175 78 81 270 543 840 837 856 940 892 857 823 766
1188 1455 1498 1956 1800 1918 1914 1734 1549 1367 1425 997 774 725 471 326 281 471 690 816 785 567 410 367 529 351 232 223 189 137 58 0 21 78 164 266 323 453 557 659 694 723 620
1139 1374 1440 1589 1540 1497 1590 1651 1531 1407 1402 1322 1240 747 413 253 348 530 691 774 657 301 124 92 242 283 301 278 140 3 0 0 0 76 206 269 426 197 206 193 164 149 126
963 1122 1311 1190 1078 1151 1147 1212 1423 1570 1628 1517 1469 1294 780 584 441 522 646 654 323 72 13 84 153 159 147 86 19 0 0 0 1 177 259 364 641 454 308 168 226 196 131
681 817 866 885 831 856 907 799 937 1052 1184 1114 1088 712 281 345 638 590 529 594 109 0 48 85 9 60 3 0 0 0 0 0 0 33 193 253 357 338 152 96 72 74 38
333 427 568 590 561 552 652 642 575 581 586 443 405 186 93 190 141 78 112 45 57 1 43 19 0 0 0 0 0 0 0 0 0 0 21 215 127 6 3 1 1 3 5
24 77 183 346 349 302 400 514 428 383 390 166 255 135 65 5 15 45 6 0 0 0 0 0 0 0 0 0 0 0 0 0 0 0 0 0 0 0 0 0 0 0 0
0 3 0 75 90 148 215 92 43 3 1 1 7 10 0 0 1 0 0 0 0 0 0 0 0 0 0 0 0 0 0 0 0 0 0 0 0 0 0 0 0 0 0
0 0 0 14 0 0 1 0 0 0 0 0 0 0 0 0 0 0 0 0 0 0 0 0 0 0 0 0 0 0 0 0 0 0 0 0 0 0 0 0 0 0 0
0 1 2 2 0 0 0 0 0 0 0 0 0 0 0 0 0 0 0 0 0 0 0 0 0 0 0 0 0 0 0 0 0 0 0 0 0 0 0 0 0 0 0
0 0 0 1 0 0 0 0 0 0 0 0 0 0 0 0 0 2 0 0 0 0 0 0 0 0 0 0 0 0 0 0 0 0 0 0 0 0 0 0 0 0 0
0 0 0 0 0 0 0 0 0 0 0 0 0 0 0 0 0 0 0 0 0 0 0 0 0 0 0 0 0 0 0 0 0 0 0 0 0 0 0 0 0 0 0
0 0 0 0 0 0 0 0 0 0 0 0 0 0 0 0 0 0 0 0 0 0 0 0 0 0 0 0 0 0 0 0 0 0 0 0 0 0 0 0 0 0 0
0 0 0 0 0 0 0 0 0 0 0 0 0 0 0 0 0 0 0 0 0 0 0 0 0 0 0 0 0 0 0 0 0 0 0 0 0 0 0 0 0 0 0
0 0 0 0 0 0 0 0 0 0 0 0 0 0 0 0 0 0 0 0 0 0 0 0 0 0 0 0 0 0 0 0 0 0 0 0 0 0 0 0 0 0 0
0 0 0 0 0 0 0 0 0 0 0 0 0 0 0 0 0 0 0 0 0 0 0 0 0 0 0 0 0 0 0 0 0 0 0 0 0 0 0 0 0 0 0
0 0 0 0 0 0 0 0 0 0 0 0 0 0 0 0 0 0 0 0 0 0 0 0 0 0 0 0 0 0 0 0 0 0 0 0 0 0 0 0 0 0 0
0 0 0 0 0 0 0 0 0 0 0 0 0 0 0 0 0 0 0 0 0 0 0 0 0 0 0 0 0 0 0 0 0 0 0 0 0 0 0 0 0 0 0
0 0 0 0 0 0 0 0 0 0 0 0 0 0 0 0 0 0 0 0 0 0 0 0 0 0 0 0 0 0 0 0 0 0 0 0 0 0 0 0 0 0 0
0 0 1 1 0 0 0 0 0 0 0 0 0 0 0 0 0 0 0 0 0 0 0 0 0 0 0 0 0 0 0 0 0 0 0 0 0 0 0 0 0 0 0
0 0 0 0 0 0 0 0 0 0 0 0 0 0 0 0 0 0 0 0 0 0 0 0 0 0 0 0 0 0 0 0 0 0 0 0 0 0 0 0 0 0 0